Regional Weather Roundup
Issued by NWS

Home | Current Version | Previous Version | Graphics & Text | Print | Product List | Glossary On
Versions: 1 2 3 4 5 6 7 8 9 10 11 12 13 14 15 16 17 18 19 20 21 22 23 24 25 26 27 28
000
ASUS45 KCYS 210210
RWRWY

WYOMING REGIONAL WEATHER ROUNDUP
NATIONAL WEATHER SERVICE CHEYENNE WY
800 PM MDT FRI APR 20 2018

NOTE:  "FAIR" INDICATES FEW OR NO CLOUDS BELOW 12,000 FEET
WITH NO SIGNIFICANT WEATHER AND/OR OBSTRUCTIONS TO VISIBILITY.

WYZ001-210300-
YELLOWSTONE NATIONAL PARK

CITY           SKY/WX    TMP DP  RH WIND       PRES   REMARKS
LK YELLOWSTONE   N/A     43  22  43 CALM      30.16R
W YELLOWSTONE  NOT AVBL

$$
WYZ002>013-054>058-071-098>099-210300-
NORTHERN WYOMING

CITY           SKY/WX    TMP DP  RH WIND       PRES   REMARKS
JACKSON        FAIR      50  21  32 NE8       30.06R
CODY           FAIR      53  32  44 N13       30.09R
GREYBULL       FAIR      58  37  45 NW12      29.99R
WORLAND        FAIR      53  34  48 S12       30.00R
SHERIDAN       FAIR      51  33  50 SE12      30.08R
BUFFALO        FAIR      44  31  60 S7        30.12S
GILLETTE       CLOUDY    42  35  76 SE15      30.13R
HULETT         CLOUDY    45  36  70 SW12      30.13S
NEWCASTLE      LGT RAIN  36  32  87 SE14G22   30.17S WCI  27

$$
WYZ014>020-022>026-101>103-210300-
CENTRAL WYOMING

CITY           SKY/WX    TMP DP  RH WIND       PRES   REMARKS
BIG PINEY      MOCLDY    49  25  39 E8        30.06R
PINEDALE       FAIR      46  27  46 E15       30.06R
DUBOIS         FAIR      46  21  36 S10       30.07R
LANDER         CLOUDY    46  32  58 E7        30.06R
RIVERTON       CLOUDY    44  32  62 E15       30.08R
CASPER         LGT RAIN  36  35  96 NE10      30.09R WCI  28
DOUGLAS        LGT RAIN  36  36 100 SE13      30.11R WCI  27

$$
WYZ021-027>030-104>119-210300-
SOUTHERN WYOMING

CITY           SKY/WX    TMP DP  RH WIND       PRES   REMARKS
EVANSTON       CLOUDY    52  27  38 NW18G30   30.04R
KEMMERER       FAIR      43  32  65 E14G22    30.06R
FORT BRIDGER   CLOUDY    45  36  70 SE5       30.04R
ROCK SPRINGS   CLOUDY    39  30  70 E7        30.07R WCI  34
DIXON          CLOUDY    41  32  70 N18       30.01R
RAWLINS        CLOUDY    35  34  96 NE16      30.04S WCI  25
SARATOGA       LGT SNOW  32  32 100 N6        30.01R WCI  26
LARAMIE        LGT SNOW  32  31  96 SE12      30.01R FOG     WCI  23
CHEYENNE       LGT SNOW  32  32 100 SE16      30.06R FOG     WCI  21
TORRINGTON     CLOUDY    37  37 100 E12       30.12R WCI  29
PINE BLUFFS    CLOUDY    34  34 100 MISG      30.10R

$$




USA.gov is the U.S. government's official web portal to all federal, state and local government web resources and services.